Time,TemperatureF,DewpointF,PressureIn,WindDirection,WindDirectionDegrees,WindSpeedMPH,WindSpeedGustMPH,Humidity,HourlyPrecipIn,Conditions,Clouds,dailyrainin,SoftwareType,DateUTC
2014-07-25 00:14:00,67.5,55.0,30.03,NNW,340,0.0,0.0,65,0.00,,,0.03,weatherlink.com 1.10,2014-07-25 04:14:00,
2014-07-25 00:29:00,66.7,56.0,30.03,NNW,340,0.0,0.0,68,0.00,,,0.00,weatherlink.com 1.10,2014-07-25 04:29:00,
2014-07-25 00:44:00,65.5,56.0,30.02,NW,304,4.0,4.0,71,0.00,,,0.00,weatherlink.com 1.10,2014-07-25 04:44:00,
2014-07-25 00:59:00,65.0,55.0,30.03,NNW,327,0.0,2.0,71,0.00,,,0.00,weatherlink.com 1.10,2014-07-25 04:59:00,
2014-07-25 01:14:00,64.2,55.0,30.03,NNW,327,0.0,1.0,72,0.00,,,0.00,weatherlink.com 1.10,2014-07-25 05:14:00,
2014-07-25 01:29:00,63.5,55.0,30.03,NNW,343,2.0,3.0,73,0.00,,,0.00,weatherlink.com 1.10,2014-07-25 05:29:00,
2014-07-25 01:44:00,64.4,54.0,30.03,NNW,342,0.0,1.0,70,0.00,,,0.00,weatherlink.com 1.10,2014-07-25 05:44:00,
2014-07-25 01:59:00,64.1,55.0,30.02,ENE,69,0.0,0.0,71,0.00,,,0.00,weatherlink.com 1.10,2014-07-25 05:59:00,
2014-07-25 02:14:00,63.6,54.0,30.03,North,360,0.0,2.0,72,0.00,,,0.00,weatherlink.com 1.10,2014-07-25 06:14:00,
2014-07-25 02:29:00,62.6,55.0,30.03,North,5,0.0,1.0,75,0.00,,,0.00,weatherlink.com 1.10,2014-07-25 06:29:00,
2014-07-25 02:44:00,61.8,55.0,30.03,North,5,0.0,0.0,77,0.00,,,0.00,weatherlink.com 1.10,2014-07-25 06:44:00,
2014-07-25 02:59:00,60.7,55.0,30.02,North,5,0.0,0.0,80,0.00,,,0.00,weatherlink.com 1.10,2014-07-25 06:59:00,
2014-07-25 03:14:00,60.1,55.0,30.03,North,5,0.0,0.0,82,0.00,,,0.00,weatherlink.com 1.10,2014-07-25 07:14:00,
2014-07-25 03:29:00,59.5,54.0,30.03,North,5,0.0,1.0,83,0.00,,,0.00,weatherlink.com 1.10,2014-07-25 07:29:00,
2014-07-25 03:44:00,59.2,54.0,30.03,North,5,0.0,0.0,83,0.00,,,0.00,weatherlink.com 1.10,2014-07-25 07:44:00,
2014-07-25 03:59:00,59.3,54.0,30.03,North,5,0.0,1.0,83,0.00,,,0.00,weatherlink.com 1.10,2014-07-25 07:59:00,
2014-07-25 04:14:00,59.0,54.0,30.02,North,9,1.0,2.0,84,0.00,,,0.00,weatherlink.com 1.10,2014-07-25 08:14:00,
2014-07-25 04:29:00,59.2,55.0,30.02,ESE,119,0.0,2.0,86,0.00,,,0.00,weatherlink.com 1.10,2014-07-25 08:29:00,
2014-07-25 04:44:00,58.9,55.0,30.03,ESE,119,0.0,1.0,86,0.00,,,0.00,weatherlink.com 1.10,2014-07-25 08:44:00,
2014-07-25 04:59:00,58.8,55.0,30.03,ESE,115,0.0,3.0,86,0.00,,,0.00,weatherlink.com 1.10,2014-07-25 08:59:00,
2014-07-25 05:14:00,58.6,55.0,30.04,ESE,115,0.0,2.0,86,0.00,,,0.00,weatherlink.com 1.10,2014-07-25 09:14:00,
2014-07-25 05:29:00,58.4,55.0,30.04,ESE,121,0.0,2.0,87,0.00,,,0.00,weatherlink.com 1.10,2014-07-25 09:29:00,
2014-07-25 05:44:00,58.2,55.0,30.06,ESE,121,0.0,2.0,88,0.00,,,0.00,weatherlink.com 1.10,2014-07-25 09:44:00,
2014-07-25 05:59:00,58.0,55.0,30.06,ESE,121,0.0,1.0,88,0.00,,,0.00,weatherlink.com 1.10,2014-07-25 09:59:00,
2014-07-25 06:14:00,57.6,54.0,30.06,ESE,121,0.0,1.0,88,0.00,,,0.00,weatherlink.com 1.10,2014-07-25 10:14:00,
2014-07-25 06:29:00,57.4,54.0,30.06,ESE,121,0.0,1.0,88,0.00,,,0.00,weatherlink.com 1.10,2014-07-25 10:29:00,
2014-07-25 06:44:00,57.2,54.0,30.07,ESE,121,0.0,2.0,88,0.00,,,0.00,weatherlink.com 1.10,2014-07-25 10:44:00,
2014-07-25 06:59:00,57.1,54.0,30.07,ESE,121,0.0,1.0,89,0.00,,,0.00,weatherlink.com 1.10,2014-07-25 10:59:00,
2014-07-25 07:14:00,57.3,54.0,30.08,ESE,121,0.0,1.0,89,0.00,,,0.00,weatherlink.com 1.10,2014-07-25 11:14:00,
2014-07-25 07:29:00,57.5,54.0,30.07,ESE,121,0.0,3.0,89,0.00,,,0.00,weatherlink.com 1.10,2014-07-25 11:29:00,
2014-07-25 07:44:00,57.7,54.0,30.07,ESE,121,0.0,3.0,88,0.00,,,0.00,weatherlink.com 1.10,2014-07-25 11:44:00,
2014-07-25 07:59:00,58.3,55.0,30.09,ESE,121,0.0,2.0,88,0.00,,,0.00,weatherlink.com 1.10,2014-07-25 11:59:00,
2014-07-25 08:14:00,60.1,57.0,30.09,ESE,121,0.0,2.0,88,0.00,,,0.00,weatherlink.com 1.10,2014-07-25 12:14:00,
2014-07-25 08:29:00,61.9,57.0,30.07,ESE,121,0.0,1.0,85,0.00,,,0.00,weatherlink.com 1.10,2014-07-25 12:29:00,
2014-07-25 08:45:00,62.7,57.0,30.07,ESE,121,0.0,1.0,81,0.00,,,0.00,weatherlink.com 1.10,2014-07-25 12:45:00,
2014-07-25 09:00:00,64.2,58.0,30.06,ESE,121,1.0,3.0,80,0.00,,,0.00,weatherlink.com 1.10,2014-07-25 13:00:00,
2014-07-25 09:15:00,65.4,58.0,30.06,ESE,121,0.0,2.0,76,0.00,,,0.00,weatherlink.com 1.10,2014-07-25 13:15:00,
2014-07-25 09:30:00,67.1,57.0,30.06,ESE,123,2.0,2.0,69,0.00,,,0.00,weatherlink.com 1.10,2014-07-25 13:30:00,
2014-07-25 09:45:00,68.4,57.0,30.05,ESE,122,0.0,4.0,68,0.00,,,0.00,weatherlink.com 1.10,2014-07-25 13:45:00,
2014-07-25 10:00:00,69.3,57.0,30.06,South,184,0.0,5.0,65,0.00,,,0.00,weatherlink.com 1.10,2014-07-25 14:00:00,
2014-07-25 10:15:00,70.7,57.0,30.06,SSE,157,1.0,4.0,63,0.00,,,0.00,weatherlink.com 1.10,2014-07-25 14:15:00,
2014-07-25 10:30:00,71.1,57.0,30.07,SE,142,0.0,3.0,62,0.00,,,0.00,weatherlink.com 1.10,2014-07-25 14:30:00,
2014-07-25 10:45:00,72.2,58.0,30.07,ESE,123,0.0,3.0,61,0.00,,,0.00,weatherlink.com 1.10,2014-07-25 14:45:00,
2014-07-25 11:00:00,73.3,58.0,30.07,East,100,0.0,2.0,60,0.00,,,0.00,weatherlink.com 1.10,2014-07-25 15:00:00,
2014-07-25 11:15:00,74.8,58.0,30.07,ENE,70,1.0,2.0,57,0.00,,,0.00,weatherlink.com 1.10,2014-07-25 15:15:00,
2014-07-25 11:30:00,75.3,57.0,30.06,SSE,159,1.0,3.0,53,0.00,,,0.00,weatherlink.com 1.10,2014-07-25 15:30:00,
2014-07-25 11:45:00,75.3,57.0,30.05,South,169,1.0,3.0,54,0.00,,,0.00,weatherlink.com 1.10,2014-07-25 15:45:00,
2014-07-25 12:00:00,75.4,56.0,30.05,NW,306,2.0,6.0,51,0.00,,,0.00,weatherlink.com 1.10,2014-07-25 16:00:00,
2014-07-25 12:15:00,75.1,56.0,30.06,SSW,192,1.0,5.0,52,0.00,,,0.00,weatherlink.com 1.10,2014-07-25 16:15:00,
2014-07-25 12:30:00,75.4,56.0,30.05,South,178,0.0,7.0,51,0.00,,,0.00,weatherlink.com 1.10,2014-07-25 16:30:00,
2014-07-25 12:45:00,77.3,57.0,30.05,ESE,109,0.0,5.0,49,0.00,,,0.00,weatherlink.com 1.10,2014-07-25 16:45:00,
2014-07-25 13:15:00,76.3,57.0,30.04,SE,132,1.0,8.0,52,0.00,,,0.00,weatherlink.com 1.10,2014-07-25 17:15:00,
2014-07-25 13:30:00,79.3,57.0,30.03,SW,231,0.0,5.0,46,0.00,,,0.00,weatherlink.com 1.10,2014-07-25 17:30:00,
2014-07-25 13:45:00,78.1,57.0,30.02,South,190,0.0,7.0,48,0.00,,,0.00,weatherlink.com 1.10,2014-07-25 17:45:00,
2014-07-25 14:00:00,78.7,57.0,30.01,WSW,243,3.0,6.0,47,0.00,,,0.00,weatherlink.com 1.10,2014-07-25 18:00:00,
2014-07-25 14:16:00,79.3,57.0,30.01,NNW,329,2.0,6.0,47,0.00,,,0.00,weatherlink.com 1.10,2014-07-25 18:16:00,
2014-07-25 14:31:00,81.4,57.0,30.00,NNW,331,4.0,5.0,43,0.00,,,0.00,weatherlink.com 1.10,2014-07-25 18:31:00,
2014-07-25 15:01:00,81.9,59.0,30.00,ENE,71,2.0,5.0,45,0.00,,,0.00,weatherlink.com 1.10,2014-07-25 19:01:00,
2014-07-25 15:16:00,80.8,57.0,30.00,South,169,4.0,7.0,45,0.00,,,0.00,weatherlink.com 1.10,2014-07-25 19:16:00,
2014-07-25 15:31:00,79.7,57.0,29.99,SSW,203,4.0,9.0,46,0.00,,,0.00,weatherlink.com 1.10,2014-07-25 19:31:00,
2014-07-25 15:46:00,80.5,58.0,29.99,South,180,4.0,7.0,46,0.00,,,0.00,weatherlink.com 1.10,2014-07-25 19:46:00,
2014-07-25 16:01:00,82.1,58.0,29.99,West,277,4.0,8.0,44,0.00,,,0.00,weatherlink.com 1.10,2014-07-25 20:01:00,
2014-07-25 16:16:00,80.8,57.0,29.99,SW,227,1.0,9.0,45,0.00,,,0.00,weatherlink.com 1.10,2014-07-25 20:16:00,
2014-07-25 16:31:00,81.1,58.0,29.98,West,270,4.0,8.0,45,0.00,,,0.00,weatherlink.com 1.10,2014-07-25 20:31:00,
2014-07-25 16:46:00,80.4,58.0,29.96,SSW,200,5.0,8.0,46,0.00,,,0.00,weatherlink.com 1.10,2014-07-25 20:46:00,
2014-07-25 17:01:00,80.6,58.0,29.97,South,177,2.0,7.0,46,0.00,,,0.00,weatherlink.com 1.10,2014-07-25 21:01:00,
2014-07-25 17:16:00,80.2,57.0,29.96,SSW,213,1.0,7.0,45,0.00,,,0.00,weatherlink.com 1.10,2014-07-25 21:16:00,
2014-07-25 17:31:00,79.9,57.0,29.95,SW,225,3.0,7.0,46,0.00,,,0.00,weatherlink.com 1.10,2014-07-25 21:31:00,
2014-07-25 17:46:00,79.7,58.0,29.95,WSW,240,5.0,6.0,47,0.00,,,0.00,weatherlink.com 1.10,2014-07-25 21:46:00,
2014-07-25 18:01:00,79.0,57.0,29.96,SSW,201,5.0,6.0,47,0.00,,,0.00,weatherlink.com 1.10,2014-07-25 22:01:00,
2014-07-25 18:16:00,78.6,56.0,29.95,SSW,192,3.0,5.0,46,0.00,,,0.00,weatherlink.com 1.10,2014-07-25 22:16:00,